CW4232 Weather Reports


time (UTC)temp
F
wind
direction
speed
knots
gust
knots
rain 1hr
in
rain 24hr
in
rain mn
in
humidity
%
barometer
mb
20260506091549 45 0 0.0 3.5 0.00 0.11 0.00 69 1016.6
20260506090040 47 5 1.7 2.6 0.00 0.11 0.00 64 1016.6
20260506084547 48 0 0.0 2.6 0.00 0.11 0.00 63 1016.6
20260506083046 49 0 0.0 1.7 0.00 0.11 0.00 60 1016.7
20260506081546 49 55 0.9 5.2 0.00 0.11 0.00 58 1016.7
20260506073041 51 0 0.0 4.3 0.00 0.11 0.00 56 1017.2
20260506071549 51 159 0.0 4.3 0.00 0.11 0.00 55 1017.1
20260506061541 53 207 4.3 8.7 0.00 0.11 0.11 53 1016.6
20260506044543 55 219 7.0 10.4 0.00 0.11 0.11 50 1016.1
20260506043041 56 232 5.2 9.6 0.00 0.11 0.11 48 1016.0
20260506041551 56 241 5.2 8.7 0.00 0.11 0.11 46 1015.9
20260506040047 57 232 7.0 13.0 0.00 0.11 0.11 43 1015.5
20260506034543 58 227 8.7 14.8 0.00 0.11 0.11 42 1015.4
20260506033043 59 234 10.4 16.5 0.00 0.11 0.11 40 1015.3
20260506031546 59 241 8.7 13.0 0.00 0.11 0.11 40 1015.1
20260506030047 59 218 5.2 11.3 0.00 0.11 0.11 39 1015.0
20260506024557 60 206 3.5 8.7 0.00 0.11 0.11 39 1014.7
20260506023047 60 261 5.2 13.0 0.00 0.11 0.11 36 1014.6
20260506021544 61 242 6.1 13.9 0.00 0.11 0.11 37 1014.2
20260506020040 62 244 6.1 13.0 0.00 0.11 0.11 35 1013.9
20260506014543 63 268 12.2 18.2 0.00 0.11 0.11 35 1013.8
20260506013050 63 252 12.2 23.5 0.00 0.11 0.11 35 1013.7
20260506011540 64 252 13.0 25.2 0.00 0.11 0.11 34 1013.6
20260506010048 65 260 11.3 20.0 0.00 0.11 0.11 34 1013.4
20260506004541 66 222 14.8 21.7 0.00 0.11 0.11 36 1013.3
20260506003041 66 275 11.3 24.3 0.00 0.11 0.11 35 1013.1
20260506001541 66 232 15.6 24.3 0.00 0.11 0.11 35 1013.2
20260506000052 66 241 13.9 26.1 0.00 0.11 0.11 35 1013.1
20260505234551 67 259 14.8 24.3 0.00 0.11 0.11 36 1013.1
20260505233045 67 252 18.2 26.9 0.00 0.11 0.11 36 1012.9
20260505231554 68 268 13.9 27.8 0.00 0.11 0.11 35 1012.9
20260505230053 68 239 13.9 26.9 0.00 0.11 0.11 34 1012.9
20260505224541 68 217 15.6 26.1 0.00 0.11 0.11 36 1013.2
20260505223040 68 242 17.4 29.5 0.00 0.11 0.11 36 1013.3
20260505221540 67 179 20.9 35.6 0.00 0.11 0.11 36 1013.3
20260505220048 68 241 17.4 29.5 0.00 0.11 0.11 37 1013.5
20260505214544 67 271 20.0 29.5 0.00 0.11 0.11 37 1013.5
20260505213051 67 232 17.4 36.5 0.00 0.11 0.11 40 1013.7
20260505211544 67 247 16.5 33.0 0.00 0.11 0.11 41 1013.7
20260505210038 66 242 21.7 32.2 0.00 0.11 0.11 40 1013.9
20260505204540 65 254 20.9 29.5 0.00 0.11 0.11 45 1014.3
20260505203046 65 226 16.5 26.9 0.00 0.11 0.11 46 1014.2
20260505201546 66 262 17.4 26.1 0.00 0.11 0.11 48 1014.3
20260505200043 64 238 20.0 30.4 0.00 0.11 0.11 51 1014.5
20260505194540 64 246 17.4 26.9 0.00 0.11 0.11 52 1014.4
20260505193039 64 184 11.3 23.5 0.00 0.11 0.11 53 1014.3
20260505191548 64 223 10.4 25.2 0.00 0.11 0.11 55 1014.5
20260505190046 64 259 13.9 22.6 0.00 0.11 0.11 56 1014.9
20260505184542 64 231 14.8 25.2 0.00 0.11 0.11 55 1014.9
20260505183040 63 209 13.0 23.5 0.00 0.11 0.11 57 1015.0
20260505181548 62 223 18.2 24.3 0.00 0.11 0.11 58 1015.2
20260505180100 62 207 12.2 21.7 0.00 0.11 0.11 60 1015.1
20260505174554 62 230 11.3 24.3 0.00 0.11 0.11 61 1015.2
20260505173045 61 211 13.0 20.0 0.00 0.11 0.11 61 1015.1
20260505171544 60 222 13.0 22.6 0.00 0.11 0.11 63 1015.1
20260505170040 60 226 13.0 19.1 0.00 0.11 0.11 64 1015.1
20260505164542 60 253 10.4 20.9 0.00 0.11 0.11 66 1015.0
20260505163044 59 235 15.6 22.6 0.00 0.11 0.11 65 1015.0
20260505161545 59 219 7.8 18.2 0.00 0.11 0.11 68 1015.1
20260505153040 58 229 11.3 17.4 0.01 0.11 0.11 71 1014.9
20260505151547 56 234 6.1 9.6 0.01 0.11 0.11 82 1014.6
20260505124547 52 0 0.0 2.6 0.01 0.08 0.08 88 1013.9
20260505123048 53 51 0.0 2.6 0.02 0.08 0.08 88 1013.7
20260505121546 53 0 0.0 2.6 0.01 0.07 0.07 88 1013.7
20260505120041 53 0 0.0 3.5 0.02 0.07 0.07 88 1014.0
20260505114541 53 0 0.0 0.0 0.02 0.07 0.07 88 1013.9
20260505113052 52 36 0.9 4.3 0.01 0.06 0.06 87 1013.6
20260505111548 53 57 2.6 5.2 0.02 0.06 0.06 87 1013.8
20260505101604 52 317 0.9 3.5 0.03 0.04 0.04 85 1014.9
20260505100058 53 0 0.0 2.6 0.03 0.03 0.03 85 1015.3
20260505094551 53 240 2.6 5.2 0.02 0.02 0.02 84 1016.1
20260505093100 53 191 0.9 3.5 0.02 0.02 0.02 83 1015.9